Regional Weather Roundup
Issued by NWS Newport/Morehead, NC

Current Version | Previous Version | Graphics & Text | Print | Product List | Glossary Off
Versions: 1 2 3 4 5 6 7 8 9 10 11 12 13 14 15 16 17 18 19 20 21 22 23 24 25 26 27 28 29 30 31 32 33 34 35 36 37 38 39 40 41 42 43 44 45 46 47 48 49 50

909
ASUS42 KMHX 220714
RWRMHX
WEATHER ROUNDUP FOR EASTERN NORTH CAROLINA
NATIONAL WEATHER SERVICE NEWPORT/MOREHEAD CITY NC
300 AM EDT TUE AUG 22 2017

NOTE: "FAIR" INDICATES FEW OR NO CLOUDS BELOW 12,000 FEET
WITH NO SIGNIFICANT WEATHER AND/OR OBSTRUCTIONS TO VISIBILITY

NCZ015>017-031-032-045>047-102-103-220800-
NORTH COAST

CITY           SKY/WX    TMP DP  RH WIND       PRES   REMARKS
EDENTON        CLEAR     79  76  91 CALM      30.15F
ELIZABETH CITY CLEAR     76  76 100 S5        30.14F
KITTY HAWK     SUNNY     78  74  90 CALM      30.14F
MANTEO         CLEAR     80  74  84 SW8       30.15F

$$

NCZ045>047-081-094-103-104-220800-
CENTRAL COAST

CITY           SKY/WX    TMP DP  RH WIND       PRES   REMARKS
FRISCO         CLEAR     75  74  96 E5        30.15F

$$

NCZ095-097-098-100-101-220800-
SOUTHERN COAST

CITY           SKY/WX    TMP DP  RH WIND       PRES   REMARKS
BEAUFORT       CLEAR     76  76 100 CALM      30.14F
CEDAR ISLAND   NOT AVBL
JACKSONVILLE   CLEAR     75  75 100 CALM      30.14F
PINEY ISLAND   SUNNY    N/A N/A N/A SW3       30.14F
WILMINGTON     PTCLDY    76  75  97 NE3       30.14F


$$

NCZ011>013-027>030-043-044-078>080-089-090>093-098-220800-
COASTAL PLAIN

CITY           SKY/WX    TMP DP  RH WIND       PRES   REMARKS
AHOSKIE          N/A     72  71  99 CALM      30.14F FOG
CLINTON        CLEAR     74  74 100 CALM      30.15F
ELIZABETHTOWN  NOT AVBL
GOLDSBORO      CLEAR     75  72  92 S1        30.15F
GREENVILLE       N/A     73  73 100 CALM      30.16S FOG
HAVELOCK       CLEAR     74  73  97 CALM      30.16F
KENANSVILLE    PTCLDY    72  70  94 CALM      30.16S
KINSTON        FOG       73  72  98 CALM      30.16S VSB 3/4
NEW BERN       CLEAR     73  73 100 CALM      30.16S
RICHLANDS      CLEAR     73  73 100 CALM      30.15F
ROCKY MOUNT    CLEAR     72  72 100 CALM      30.14F
WASHINGTON     CLEAR     75  74  95 CALM      30.15F
WHITEVILLE     CLOUDY    76  75  97 CALM      30.14F

$$

AMZ130-135-150-152-154-156-158-170-250-252-270-ANZ085-086-088-633-658-670-220800-
MARINE OBSERVATIONS

STATION/POSITION TIME  TEMP    WIND        PRES    WAVE   SWELL
                       AIR SEA DIR/SP/G            HT/PER HT/PER
                 (UTC) (F)     (DEG/KT/KT) (MB)    (FT/S) (FT/S)
CHESAPEAKE LIGHT NOT AVBL
64 E VA BEACH    0650   79 79  200/  8/  8 1021.2    2/10   2/10
DUCK             0642          200/  7/  9 1020.4
2 E DUCK         0630      81                N/A     2/ 9
OREGON INLET     0642          170/  5/  7 1020.8
13E OREGON INLT  0648      80                N/A     2/ 9   2/ 9
HATTERAS CG      0642          130/  2/  3 1020.7
DIAMOND BUOY     0650   82 84  320/  4/  6 1020.7    2/ 9   2/ 9
CAPE LOOKOUT     0700   80     180/  2/  2 1020.3
BEAUFORT LAB     0642          220/  2/  4 1020.2
30 SE NEW RVR IN 0608   80 83  220/  2/  4 1021.3
30 SE NEW RVR IN 0643      83                N/A     3/ 8   2/11
27 SE WRIGHTSVLE 0608   83 84  180/  6/ 10 1021.1
5 SE WRIGHTSVLE  0608   83 83  200/  6/ 10 1020.9
225 S CAPE HAT   0650   82 84  140/  6/  8 1020.9    4/11   3/11
41 SE CHARLESTON 0700   84 85  210/  8/ 10 1019.5

$$




USA.gov is the U.S. government's official web portal to all federal, state and local government web resources and services.